• In Austria
  • List of Countries
  • For 7 days
  • Water Temperature
  • Satellite Maps
  • Weather Map
  • News
  • Weather Widgets
  • user-avatar
    Login

    Hourly Weather Jablonna

    Today, 18 February, Sunday

    Time Temperature Precipitation Wind Pressure Humidity
    00:00 -2°C° 0 mm 2 mps 761 mmHg 95%
    01:00 -2°C° 0 mm 2 mps 762 mmHg 94%
    02:00 -2°C° 0 mm 2 mps 762 mmHg 94%
    03:00 -3°C° 0 mm 2 mps 762 mmHg 94%
    04:00 -3°C° 0 mm 2 mps 762 mmHg 94%
    05:00 -3°C° 0 mm 2 mps 762 mmHg 94%
    06:00 -1°C° 0 mm 1 mps 763 mmHg 94%
    07:00 -1°C° 0 mm 1 mps 763 mmHg 94%
    08:00 0°C° 0 mm 1 mps 763 mmHg 88%
    09:00 +1°C° 0 mm 1 mps 764 mmHg 82%
    10:00 +2°C° 0 mm 1 mps 764 mmHg 76%
    11:00 +3°C° 0 mm 1 mps 764 mmHg 72%
    12:00 +4°C° 0 mm 1 mps 764 mmHg 68%
    13:00 +4°C° 0 mm 1 mps 764 mmHg 63%
    14:00 +4°C° 0 mm 1 mps 764 mmHg 65%
    15:00 +4°C° 0 mm 1 mps 763 mmHg 66%
    16:00 +4°C° 0 mm 1 mps 763 mmHg 68%
    17:00 +2°C° 0 mm 0 mps 763 mmHg 71%
    18:00 +1°C° 0 mm 0 mps 763 mmHg 74%
    19:00 0°C° 0 mm 0 mps 763 mmHg 77%
    20:00 0°C° 0 mm 0 mps 763 mmHg 78%
    21:00 +1°C° 0 mm 1 mps 763 mmHg 78%
    22:00 +1°C° 0 mm 1 mps 763 mmHg 79%
    23:00 +1°C° 0 mm 1 mps 763 mmHg 80%

    Tomorrow, 19 February, Monday

    Time Temperature Precipitation Wind Pressure Humidity
    00:00 +1°C° 0 mm 1 mps 763 mmHg 81%
    01:00 -2°C° 0 mm 2 mps 762 mmHg 82%
    02:00 -2°C° 0 mm 2 mps 762 mmHg 82%
    03:00 -2°C° 0 mm 2 mps 762 mmHg 82%
    04:00 -2°C° 0 mm 2 mps 761 mmHg 83%
    05:00 -2°C° 0 mm 2 mps 761 mmHg 82%
    06:00 -2°C° 0 mm 2 mps 761 mmHg 82%
    07:00 -2°C° 0 mm 2 mps 761 mmHg 81%
    08:00 -1°C° 0 mm 2 mps 760 mmHg 76%
    09:00 +1°C° 0 mm 2 mps 760 mmHg 71%
    10:00 +2°C° 0 mm 2 mps 760 mmHg 65%
    11:00 +2°C° 0 mm 2 mps 760 mmHg 61%
    12:00 +3°C° 0 mm 2 mps 760 mmHg 57%
    13:00 +4°C° 0 mm 2 mps 759 mmHg 54%
    14:00 +4°C° 0 mm 2 mps 759 mmHg 56%
    15:00 +3°C° 0 mm 2 mps 759 mmHg 58%
    16:00 +3°C° 0 mm 2 mps 758 mmHg 61%
    17:00 +2°C° 0 mm 2 mps 758 mmHg 63%
    18:00 +1°C° 0 mm 2 mps 758 mmHg 66%
    19:00 -1°C° 0 mm 2 mps 758 mmHg 69%
    20:00 -1°C° 0 mm 2 mps 758 mmHg 70%
    21:00 -1°C° 0 mm 2 mps 758 mmHg 71%
    22:00 -1°C° 0 mm 2 mps 758 mmHg 71%
    23:00 -1°C° 0 mm 2 mps 758 mmHg 72%

    Day after tomorrow, 20 February, Tuesday

    Time Temperature Precipitation Wind Pressure Humidity
    00:00 -2°C° 0 mm 2 mps 758 mmHg 73%
    01:00 -2°C° 0 mm 2 mps 758 mmHg 74%
    02:00 -2°C° 0 mm 2 mps 758 mmHg 75%
    03:00 -2°C° 0 mm 2 mps 757 mmHg 76%
    04:00 -2°C° 0 mm 2 mps 757 mmHg 77%
    05:00 -2°C° 0 mm 2 mps 757 mmHg 78%
    06:00 -3°C° 0 mm 2 mps 757 mmHg 78%
    07:00 -3°C° 0 mm 2 mps 757 mmHg 79%
    08:00 -2°C° 0 mm 3 mps 757 mmHg 73%
    09:00 -1°C° 0 mm 3 mps 757 mmHg 68%
    10:00 0°C° 0 mm 3 mps 757 mmHg 63%
    11:00 +1°C° 0 mm 3 mps 757 mmHg 59%
    12:00 +2°C° 0 mm 3 mps 757 mmHg 56%
    13:00 +3°C° 0 mm 3 mps 757 mmHg 52%
    14:00 +2°C° 0 mm 3 mps 757 mmHg 54%
    15:00 +2°C° 0 mm 3 mps 757 mmHg 56%
    16:00 +2°C° 0 mm 3 mps 757 mmHg 57%
    17:00 +1°C° 0 mm 3 mps 757 mmHg 62%
    18:00 -1°C° 0 mm 3 mps 757 mmHg 68%
    19:00 -2°C° 0 mm 3 mps 757 mmHg 73%
    20:00 -2°C° 0 mm 3 mps 758 mmHg 74%
    21:00 -4°C° 0 mm 3 mps 758 mmHg 75%
    22:00 -4°C° 0 mm 3 mps 758 mmHg 76%
    23:00 -4°C° 0 mm 3 mps 758 mmHg 76%

    21 February, Wednesday

    Time Temperature Precipitation Wind Pressure Humidity
    00:00 -4°C° 0 mm 3 mps 758 mmHg 77%
    01:00 -3°C° 0 mm 2 mps 758 mmHg 77%
    02:00 -4°C° 0 mm 3 mps 758 mmHg 77%
    03:00 -4°C° 0 mm 3 mps 758 mmHg 77%
    04:00 -5°C° 0 mm 3 mps 758 mmHg 77%
    05:00 -5°C° 0 mm 3 mps 758 mmHg 78%
    06:00 -5°C° 0 mm 3 mps 759 mmHg 78%
    07:00 -5°C° 0 mm 3 mps 759 mmHg 78%
    08:00 -4°C° 0 mm 3 mps 759 mmHg 73%
    09:00 -2°C° 0 mm 3 mps 759 mmHg 68%
    10:00 -2°C° 0 mm 4 mps 759 mmHg 63%
    11:00 -1°C° 0 mm 4 mps 759 mmHg 60%
    12:00 0°C° 0 mm 4 mps 759 mmHg 58%
    13:00 0°C° 0 mm 4 mps 758 mmHg 56%
    14:00 0°C° 0 mm 4 mps 758 mmHg 58%
    15:00 0°C° 0 mm 4 mps 758 mmHg 60%
    16:00 0°C° 0 mm 4 mps 758 mmHg 62%
    17:00 -1°C° 0 mm 4 mps 758 mmHg 66%
    18:00 -2°C° 0 mm 3 mps 759 mmHg 70%
    19:00 -4°C° 0 mm 3 mps 759 mmHg 74%
    20:00 -4°C° 0 mm 3 mps 759 mmHg 74%
    21:00 -4°C° 0 mm 3 mps 759 mmHg 73%
    22:00 -4°C° 0 mm 3 mps 760 mmHg 73%
    23:00 -4°C° 0 mm 3 mps 760 mmHg 72%

    22 February, Thursday

    Time Temperature Precipitation Wind Pressure Humidity
    00:00 -5°C° 0 mm 4 mps 759 mmHg 72%
    01:00 -5°C° 0 mm 4 mps 759 mmHg 71%
    02:00 -5°C° 0 mm 4 mps 759 mmHg 71%
    03:00 -5°C° 0 mm 4 mps 759 mmHg 70%
    04:00 -5°C° 0 mm 4 mps 759 mmHg 70%
    05:00 -5°C° 0 mm 4 mps 759 mmHg 70%
    06:00 -5°C° 0 mm 4 mps 759 mmHg 70%
    07:00 -5°C° 0 mm 4 mps 758 mmHg 71%
    08:00 -5°C° 0 mm 4 mps 758 mmHg 68%
    09:00 -4°C° 0 mm 4 mps 758 mmHg 66%
    10:00 -4°C° 0 mm 5 mps 758 mmHg 63%
    11:00 -2°C° 0 mm 5 mps 758 mmHg 61%
    12:00 -2°C° 0 mm 5 mps 757 mmHg 59%
    13:00 -1°C° 0 mm 5 mps 757 mmHg 56%
    14:00 -1°C° 0 mm 5 mps 756 mmHg 57%
    15:00 -2°C° 0 mm 5 mps 756 mmHg 58%
    16:00 -2°C° 0 mm 5 mps 756 mmHg 59%
    17:00 -2°C° 0 mm 5 mps 755 mmHg 61%
    18:00 -4°C° 0 mm 5 mps 755 mmHg 63%
    19:00 -3°C° 0 mm 4 mps 755 mmHg 66%
    20:00 -4°C° 0 mm 4 mps 755 mmHg 66%
    21:00 -4°C° 0 mm 4 mps 755 mmHg 66%
    22:00 -4°C° 0 mm 4 mps 755 mmHg 67%
    23:00 -4°C° 0 mm 4 mps 754 mmHg 67%

    23 February, Friday

    Time Temperature Precipitation Wind Pressure Humidity
    00:00 -4°C° 0 mm 4 mps 754 mmHg 68%
    01:00 -4°C° 0 mm 4 mps 753 mmHg 68%
    02:00 -5°C° 0 mm 4 mps 753 mmHg 69%
    03:00 -5°C° 0 mm 4 mps 752 mmHg 69%
    04:00 -5°C° 0 mm 4 mps 752 mmHg 70%
    05:00 -5°C° 0 mm 4 mps 752 mmHg 70%
    06:00 -5°C° 0 mm 4 mps 752 mmHg 70%
    07:00 -5°C° 0 mm 4 mps 752 mmHg 71%
    08:00 -5°C° 0 mm 4 mps 751 mmHg 69%
    09:00 -5°C° 0 mm 4 mps 751 mmHg 66%
    10:00 -4°C° 0 mm 4 mps 751 mmHg 64%
    11:00 -4°C° 0 mm 4 mps 751 mmHg 61%
    12:00 -3°C° 0 mm 4 mps 750 mmHg 59%
    13:00 -3°C° 0 mm 4 mps 750 mmHg 56%
    14:00 -3°C° 0 mm 4 mps 750 mmHg 56%
    15:00 -3°C° 0 mm 4 mps 750 mmHg 56%
    16:00 -3°C° 0 mm 4 mps 750 mmHg 56%
    17:00 -4°C° 0 mm 4 mps 750 mmHg 57%
    18:00 -4°C° 0 mm 4 mps 750 mmHg 59%
    19:00 -5°C° 0 mm 3 mps 750 mmHg 61%
    20:00 -5°C° 0 mm 4 mps 750 mmHg 61%
    21:00 -5°C° 0 mm 4 mps 750 mmHg 61%
    22:00 -5°C° 0 mm 4 mps 750 mmHg 62%
    23:00 -7°C° 0 mm 4 mps 750 mmHg 62%
    Show more